Location: Goettingen
(51.5300°N, 9.9433°E)
Time: 06:02:56
(UTC+02:00)

ISS - Visible Passes

Search period start: 19 July 2018 00:00
Search period end: 29 July 2018 00:00
Orbit: 402 x 408 km, 51.6° (Epoch: 19 July)

Date Brightness Start Highest point End Pass type
(mag) Time Alt. Az. Time Alt. Az. Time Alt. Az.
19 Jul -3.9 01:31:02 10° W 01:34:20 87° S 01:37:39 10° E visible
19 Jul -3.9 03:07:33 10° W 03:10:51 80° S 03:14:09 10° ESE visible
19 Jul -2.7 23:03:21 10° SSW 23:06:04 24° SSE 23:08:48 10° E visible
20 Jul -4.0 00:38:58 10° WSW 00:42:14 74° SSE 00:45:32 10° E visible
20 Jul -3.9 02:15:26 10° W 02:18:45 89° N 02:22:03 10° E visible
20 Jul -3.4 03:51:59 10° W 03:55:07 40° SSW 03:58:14 10° SE visible
20 Jul -2.2 22:12:04 10° S 22:14:10 16° SE 22:16:16 10° ESE visible
20 Jul -3.8 23:46:57 10° WSW 23:50:10 57° SSE 23:53:25 10° E visible
21 Jul -3.9 01:23:19 10° W 01:26:37 86° N 01:29:55 10° E visible
21 Jul -3.8 02:59:49 10° W 03:03:04 57° SSW 03:06:19 10° ESE visible
21 Jul -2.2 04:36:56 10° W 04:39:05 16° SW 04:41:12 10° S visible
21 Jul -3.4 22:55:01 10° SW 22:58:07 40° SSE 23:01:14 10° E visible
22 Jul -3.9 00:31:10 10° W 00:34:29 89° NE 00:37:47 10° E visible
22 Jul -4.0 02:07:41 10° W 02:10:59 74° SSW 02:14:16 10° ESE visible
22 Jul -2.7 03:44:24 10° W 03:47:09 24° SSW 03:49:53 10° SSE visible
22 Jul -2.9 22:03:15 10° SSW 22:06:06 28° SSE 22:08:59 10° E visible
22 Jul -4.0 23:39:03 10° WSW 23:42:20 80° SSE 23:45:38 10° E visible
23 Jul -4.0 01:15:32 10° W 01:18:51 87° S 01:20:47 23° E visible
23 Jul -2.0 02:52:06 10° W 02:53:16 19° W 02:53:16 19° W visible
23 Jul -3.9 22:46:57 10° WSW 22:50:12 63° SSE 22:53:28 10° E visible
24 Jul -3.9 00:23:22 10° W 00:26:41 86° N 00:29:04 17° E visible
24 Jul -2.5 01:59:53 10° W 02:01:39 27° W 02:01:39 27° W visible
24 Jul -3.9 23:31:12 10° W 23:34:30 87° N 23:37:48 10° E visible
25 Jul -3.8 01:07:42 10° W 01:10:40 62° WSW 01:10:40 62° WSW visible
25 Jul -3.9 22:39:01 10° WSW 22:42:19 84° SSE 22:45:37 10° E visible
26 Jul -4.0 00:15:31 10° W 00:18:49 83° SSW 00:19:52 40° ESE visible
26 Jul -1.3 01:52:08 10° W 01:52:29 12° W 01:52:29 12° W visible
26 Jul -3.9 23:23:19 10° W 23:26:37 88° N 23:29:09 16° E visible
27 Jul -2.5 00:59:51 10° W 01:01:47 29° WSW 01:01:47 29° WSW visible
27 Jul -3.8 22:31:06 10° W 22:34:24 86° N 22:37:42 10° E visible
28 Jul -3.9 00:07:37 10° W 00:10:52 61° SSW 00:11:07 58° S visible
28 Jul -3.9 23:15:24 10° W 23:18:41 78° S 23:20:30 24° ESE visible
